Tracking 29892 objects as of 21-Nov-2024
HD Live streaming from Space Station
objects crossing your sky now

CZ-6A DEB

Track CZ-6A DEB now!
10-day predictions


NORAD ID: 55890
Int'l Code: 2022-151AAN
Perigee: 510.9 km
Apogee: 556.6 km
Inclination: 98.7 °
Period: 95.2 minutes
Semi major axis: 6904 km
RCS: Unknown
Launch date: November 11, 2022
Source: People's Republic of China (PRC)
Launch site: Taiyaun Space Center, China (TSC)

Note: This is SATELLITE DEBRIS
Your satellite tracking list
Your tracking list is empty




NASA's NSSDC Master Catalog

Two Line Element Set (TLE):
1 55890U 22151AAN 24325.59283465  .00329601  00000-0  17578-1 0  9996
2 55890  98.6521  13.3888 0033124 182.2927 177.8154 15.13143314102399
Source of the keplerian elements: AFSPC